Regional Weather Roundup
Issued by NWS

Home | Current Version | Previous Version | Graphics & Text | Print | Product List | Glossary On
Versions: 1 2 3 4 5 6 7 8 9 10 11 12 13 14 15 16 17 18 19 20 21 22 23 24 25 26 27 28 29 30 31 32 33 34 35 36 37 38 39 40 41 42 43 44 45 46 47 48 49 50
000
ASUS43 KDTX 210601
RWRMI
MICHIGAN HOURLY REGIONAL WEATHER ROUNDUP
NATIONAL WEATHER SERVICE DETROIT/PONTIAC MI
100 AM EST SAT JAN 21 2017

NOTE: "FAIR" INDICATES FEW OR NO CLOUDS BELOW 12,000 FEET WITH NO
SIGNIFICANT WEATHER AND/OR OBSTRUCTION TO VISIBILITY.

MIZ047>049-052>055-059>063-066>070-074>076-081>083-210700-
SOUTHEAST LOWER MICHIGAN

CITY           SKY/WX    TMP DP  RH WIND       PRES   REMARKS
ADRIAN         FOG       41  41 100 CALM      29.73F VSB 1/4
6HR MIN TEMP:  38; 6HR MAX TEMP:  41;

ALMA           FOG       34  33  99 NE6       29.71F VSB 1/2 WCI  29
ANN ARBOR      FOG       40  40 100 CALM      29.73F VSB 1/4
BAD AXE        FOG       34  34 100 SW3       29.75S VSB 1
6HR MIN TEMP:  33; 6HR MAX TEMP:  34;

CARO           FOG       34  34 100 CALM      29.73F VSB 1/2
DETROIT CITY   FOG       40  40 100 SE3       29.75S VSB 1/4
6HR MIN TEMP:  40; 6HR MAX TEMP:  42;

DETROIT        FOG       40  40 100 CALM      29.75S VSB 1/8
6HR MIN TEMP:  40; 6HR MAX TEMP:  42;

FLINT          FOG       37  36  96 E5        29.72F VSB 1/2 WCI  33
6HR MIN TEMP:  36; 6HR MAX TEMP:  37;

GROSSE ILE     FOG       36  36  99 CALM      29.74S VSB 1/4
6HR MIN TEMP:  35; 6HR MAX TEMP:  38;

HILLSDALE      FOG       41  41 100 SE5       29.70F VSB 1/4
HOWELL         FOG       37  37  97 CALM      29.71S VSB 1/4

CITY           SKY/WX    TMP DP  RH WIND       PRES   REMARKS
JACKSON        CLOUDY    43  42  97 S5        29.71S FOG
6HR MIN TEMP:  40; 6HR MAX TEMP:  43;

LAMBERTVILLE   CLOUDY    47  45  95 S5        29.74S FOG
6HR MIN TEMP:  42; 6HR MAX TEMP:  49;

LANSING        FOG       38  36  92 E3        29.71F VSB 1/4
6HR MIN TEMP:  37; 6HR MAX TEMP:  39;

LAPEER         FOG       36  36 100 E8        29.74S VSB 1/2 WCI  29
6HR MIN TEMP:  35; 6HR MAX TEMP:  37;

MASON          CLOUDY    40  40 100 S3        29.71S FOG
MONROE         FOG       42  42 100 SE6       29.74S VSB 1/2
6HR MIN TEMP:  36; 6HR MAX TEMP:  42;

MT. CLEMENS    FOG       38  38 100 SE3       29.74S VSB 3/4
6HR MIN TEMP:  36; 6HR MAX TEMP:  40;

PONTIAC        FOG       39  37  92 SE5       29.71F VSB 1/4
6HR MIN TEMP:  37; 6HR MAX TEMP:  40;

PORT HOPE        N/A     35  34  96 CALM      29.73S
6HR MIN TEMP:  34; 6HR MAX TEMP:  35;

PORT HURON     FOG       37  37 100 SE3       29.76S VSB 1/2
TRI CITIES     FOG       34  34 100 E5        29.73F VSB 1/4 WCI  30
6HR MIN TEMP:  34; 6HR MAX TEMP:  34;

MIDLAND        CLOUDY    34  33  96 NE3       29.72F FOG
6HR MIN TEMP:  34; 6HR MAX TEMP:  35;

TROY           FOG       40  39  95 CALM      29.76S VSB 1/4
SAGINAW HB     FOG       34  32  93 E3        29.73F VSB 1/2
$$
MIZ043>046-050>051-056>058-064>065-071>073-077>080-210700-
SOUTHWEST LOWER MICHIGAN

CITY           SKY/WX    TMP DP  RH WIND       PRES   REMARKS
BATTLE CREEK   CLOUDY    44  43  96 S8        29.69F FOG
6HR MIN TEMP:  39; 6HR MAX TEMP:  44;

BENTON HARBOR  CLOUDY    47  45  93 SE8       29.64F
6HR MIN TEMP:  42; 6HR MAX TEMP:  47;

BIG RAPIDS     FOG       33  32  98 CALM      29.68F VSB 3/4
6HR MIN TEMP:  32; 6HR MAX TEMP:  33;

COLDWATER      CLOUDY    45  45 100 SE3       29.69F FOG
6HR MIN TEMP:  41; 6HR MAX TEMP:  45;

FREMONT        FOG       34  34 100 E5        29.68F VSB 3/4 WCI  30
HOLLAND        CLOUDY    41  40  96 CALM      29.67F
6HR MIN TEMP:  38; 6HR MAX TEMP:  41;

GRAND RAPIDS   FOG       37  35  92 E6        29.68F VSB 1/4 WCI  32
6HR MIN TEMP:  35; 6HR MAX TEMP:  37;

IONIA          FOG       35  35 100 E3        29.69S VSB 1/4
6HR MIN TEMP:  33; 6HR MAX TEMP:  35;

KALAMAZOO      CLOUDY    45  43  93 S5        29.68F FOG
6HR MIN TEMP:  40; 6HR MAX TEMP:  45;

LUDINGTON      CLOUDY    34  34 100 E5        29.68S FOG     WCI  30
6HR MIN TEMP:  34; 6HR MAX TEMP:  36;

MARSHALL       CLOUDY    44  43  98 SE3       29.69F FOG
6HR MIN TEMP:  39; 6HR MAX TEMP:  44;

MOUNT PLEASANT FOG       33  33  99 NE3       29.71F VSB 1
6HR MIN TEMP:  33; 6HR MAX TEMP:  34;

MUSKEGON       FOG       37  37 100 E5        29.68S VSB 1/4 WCI  33
6HR MIN TEMP:  37; 6HR MAX TEMP:  37;

SOUTH HAVEN    CLOUDY    45  45 100 SE3       29.66F FOG
$$
MIZ016>042-210700-
NORTHERN LOWER MICHIGAN

CITY           SKY/WX    TMP DP  RH WIND       PRES   REMARKS
ALPENA         CLOUDY    33  32  96 SW3       29.73S FOG
6HR MIN TEMP:  33; 6HR MAX TEMP:  34; 6HR PCP: TRACE;

BEAVER ISLAND  CLOUDY    35  35 100 CALM      29.70S FOG
6HR MIN TEMP:  33; 6HR MAX TEMP:  35;

BELLAIRE       CLOUDY    34  34  98 CALM      29.72S
6HR MIN TEMP:  33; 6HR MAX TEMP:  35;

CADILLAC       FOG       32  31  96 CALM      29.68F VSB 1/2
CHARLEVOIX     CLOUDY    34  34 100 CALM      29.74S FOG
6HR MIN TEMP:  34; 6HR MAX TEMP:  35;

FRANKFORT      CLOUDY    34  34  99 SE5       29.70S FOG     WCI  30
GAYLORD        CLOUDY    35  31  85 SW6       29.69S WCI  30
6HR MIN TEMP:  35; 6HR MAX TEMP:  36; 6HR PCP: TRACE;

GRAYLING       CLOUDY    33  33  99 CALM      29.71S FOG
6HR MIN TEMP:  33; 6HR MAX TEMP:  35;

HARBOR SPRINGS CLOUDY    33  33 100 CALM      29.71S FOG
HOUGHTON LAKE  FOG       32  31  96 SW7       29.71S VSB 3/4 WCI  26
6HR MIN TEMP:  32; 6HR MAX TEMP:  33;

MANISTEE       CLOUDY    34  33  96 E7        29.69F FOG     WCI  28
OSCODA         FOG       34  34  98 SW5       29.73S VSB 1/2 WCI  30
6HR MIN TEMP:  34; 6HR MAX TEMP:  35;

PELLSTON       FOG       33  31  92 CALM      29.72R VSB 1/2
6HR MIN TEMP:  33; 6HR MAX TEMP:  34; 6HR PCP: TRACE;

ROGERS CITY    CLOUDY    34  33  96 CALM      29.74R FOG
TRAVERSE CITY  CLOUDY    36  33  89 CALM      29.70F
6HR MIN TEMP:  35; 6HR MAX TEMP:  37; 6HR PCP: TRACE;

$$
MIZ007>008-015-210700-
EASTERN UPPER MICHIGAN

CITY           SKY/WX    TMP DP  RH WIND       PRES   REMARKS
KINROSS        CLOUDY    32  32 100 SE7       29.71S FOG     WCI  26
6HR MIN TEMP:  32; 6HR MAX TEMP:  32; 6HR PCP:  0.03;

MACKINAC ISLAN FOG       32  32 100 S6        29.71S VSB 1   WCI  26
6HR MIN TEMP:  32; 6HR MAX TEMP:  33;

NEWBERRY       FOG       32  31  96 SE3       29.69S VSB 3/4
6HR MIN TEMP:  32; 6HR MAX TEMP:  32; 6HR PCP:  0.02;

S. S. MARIE    LGT RAIN  33  32  96 E3        29.70F FOG
6HR MIN TEMP:  33; 6HR MAX TEMP:  33; 6HR PCP:  0.06;

MUNISING         N/A     34  33  96 S5        29.68S WCI  30
6HR MIN TEMP:  34; 6HR MAX TEMP:  35; 6HR PCP:  0.20;

$$
MIZ004>006-011>014-085-210700-
CENTRAL UPPER MICHIGAN

CITY           SKY/WX    TMP DP  RH WIND       PRES   REMARKS
MANISTIQUE     CLOUDY    32  32  99 SE6       29.70S FOG     WCI  26
6HR MIN TEMP:  32; 6HR MAX TEMP:  32; 6HR PCP:  0.14;

ESCANABA       FOG       33  32  96 N3        29.68F VSB 1/2
6HR MIN TEMP:  33; 6HR MAX TEMP:  33; 6HR PCP:  0.04;

SAWYER-GWINN   CLOUDY    32  32  99 S7        29.67S FOG     WCI  26
6HR MIN TEMP:  32; 6HR MAX TEMP:  33; 6HR PCP:  0.14;

$$
MIZ001>003-009>011-084-210700-
WESTERN UPPER MICHIGAN

CITY           SKY/WX    TMP DP  RH WIND       PRES   REMARKS
IRON MOUNTAIN  FOG       32  30  92 CALM      29.65F VSB 3/4
6HR MIN TEMP:  32; 6HR MAX TEMP:  34; 6HR PCP:  0.01;

HOUGHTON       LGT RAIN  33  31  92 SE6       29.63S VSB 1/4 WCI  28
6HR MIN TEMP:  33; 6HR MAX TEMP:  34; 6HR PCP:  0.14;

COPPER HARBOR    N/A     34  34 100 SW3       29.65R
6HR MIN TEMP:  34; 6HR MAX TEMP:  36; 6HR PCP:  0.08;

IRONWOOD       CLOUDY    35  34  96 SE6       29.60F WCI  30
6HR MIN TEMP:  35; 6HR MAX TEMP:  36; 6HR PCP:  0.04;

$$

ABBREVIATIONS USED IN REMARKS
   TC - TEMPERATURE IN CELSIUS
  WCI - WIND CHILL INDEX
   HX - HEAT INDEX
  VSB - VISIBILITY





USA.gov is the U.S. government's official web portal to all federal, state and local government web resources and services.